Location: Culleoka
(33.1312°N, 96.4919°W)
Time: 13:17:38
(UTC+00:00)

Cosmos 1500 Rocket - Pass Details

Date: 07 July 2022
Orbit: 601 x 632 km, 82.5° (Epoch: 18 August)

Event Time Altitude Azimuth Distance (km) Brightness Sun altitude
Exits shadow 09:01:14 84° 226° (SW) 636 3.4 -23.8°
Maximum altitude 09:01:20 86° 278° (W) 634 3.4 -23.8°
Drops below altitude 10° 09:05:49 10° 5° (N) 2,015 6.9 -23.2°
Sets 09:08:04 0° 6° (N) 2,928 7.9 -22.9°
